Time,TemperatureF,DewpointF,PressureIn,WindDirection,WindDirectionDegrees,WindSpeedMPH,WindSpeedGustMPH,Humidity,HourlyPrecipIn,Conditions,Clouds,dailyrainin,SoftwareType,DateUTC
2013-03-18 00:12:00,17.4,-1.0,30.30,NNE,23,1.0,9.0,45,0.00,,,0.00,weatherlink.com 1.10,2013-03-18 04:12:00,
2013-03-18 00:27:00,17.2,-1.0,30.31,North,352,1.0,6.0,45,0.00,,,0.00,weatherlink.com 1.10,2013-03-18 04:27:00,
2013-03-18 00:42:00,16.9,-1.0,30.32,NW,307,1.0,6.0,46,0.00,,,0.00,weatherlink.com 1.10,2013-03-18 04:42:00,
2013-03-18 00:57:00,16.5,-1.0,30.32,NNW,335,1.0,3.0,46,0.00,,,0.00,weatherlink.com 1.10,2013-03-18 04:57:00,
2013-03-18 01:12:00,16.0,-1.0,30.33,West,278,0.0,2.0,47,0.00,,,0.00,weatherlink.com 1.10,2013-03-18 05:12:00,
2013-03-18 01:27:00,15.7,-1.0,30.34,NE,36,1.0,1.0,47,0.00,,,0.00,weatherlink.com 1.10,2013-03-18 05:27:00,
2013-03-18 01:42:00,15.4,-2.0,30.34,NW,319,1.0,4.0,47,0.00,,,0.00,weatherlink.com 1.10,2013-03-18 05:42:00,
2013-03-18 01:57:00,15.3,-2.0,30.35,NNW,339,0.0,1.0,47,0.00,,,0.00,weatherlink.com 1.10,2013-03-18 05:57:00,
2013-03-18 02:12:00,15.0,-2.0,30.35,NW,317,2.0,3.0,48,0.00,,,0.00,weatherlink.com 1.10,2013-03-18 06:12:00,
2013-03-18 02:27:00,14.9,-1.0,30.35,WNW,296,1.0,2.0,49,0.00,,,0.00,weatherlink.com 1.10,2013-03-18 06:27:00,
2013-03-18 02:43:00,14.7,-1.0,30.35,WNW,295,0.0,2.0,49,0.00,,,0.00,weatherlink.com 1.10,2013-03-18 06:43:00,
2013-03-18 02:58:00,14.4,-2.0,30.36,NNE,30,0.0,2.0,49,0.00,,,0.00,weatherlink.com 1.10,2013-03-18 06:58:00,
2013-03-18 03:13:00,14.1,-1.0,30.36,NW,315,0.0,2.0,51,0.00,,,0.00,weatherlink.com 1.10,2013-03-18 07:13:00,
2013-03-18 03:28:00,14.2,-1.0,30.36,NNW,335,0.0,2.0,50,0.00,,,0.00,weatherlink.com 1.10,2013-03-18 07:28:00,
2013-03-18 03:43:00,14.3,-1.0,30.36,NW,305,0.0,2.0,51,0.00,,,0.00,weatherlink.com 1.10,2013-03-18 07:43:00,
2013-03-18 03:58:00,13.9,-1.0,30.36,NW,314,1.0,2.0,53,0.00,,,0.00,weatherlink.com 1.10,2013-03-18 07:58:00,
2013-03-18 04:13:00,13.7,-1.0,30.36,NNW,333,0.0,2.0,53,0.00,,,0.00,weatherlink.com 1.10,2013-03-18 08:13:00,
2013-03-18 04:28:00,13.7,-1.0,30.36,NW,314,0.0,2.0,53,0.00,,,0.00,weatherlink.com 1.10,2013-03-18 08:28:00,
2013-03-18 04:43:00,13.7,0.0,30.37,NW,322,1.0,2.0,54,0.00,,,0.00,weatherlink.com 1.10,2013-03-18 08:43:00,
2013-03-18 04:58:00,13.8,-1.0,30.37,NW,319,1.0,3.0,53,0.00,,,0.00,weatherlink.com 1.10,2013-03-18 08:58:00,
2013-03-18 05:13:00,13.8,-1.0,30.38,NW,316,1.0,4.0,53,0.00,,,0.00,weatherlink.com 1.10,2013-03-18 09:13:00,
2013-03-18 05:28:00,13.7,-1.0,30.38,NW,317,1.0,3.0,53,0.00,,,0.00,weatherlink.com 1.10,2013-03-18 09:28:00,
2013-03-18 05:44:00,13.6,0.0,30.39,NNW,328,0.0,2.0,54,0.00,,,0.00,weatherlink.com 1.10,2013-03-18 09:44:00,
2013-03-18 05:59:00,13.4,0.0,30.40,NW,321,2.0,3.0,55,0.00,,,0.00,weatherlink.com 1.10,2013-03-18 09:59:00,
2013-03-18 06:14:00,13.0,1.0,30.40,NW,312,0.0,1.0,58,0.00,,,0.00,weatherlink.com 1.10,2013-03-18 10:14:00,
2013-03-18 06:29:00,12.7,1.0,30.41,NW,314,1.0,1.0,59,0.00,,,0.00,weatherlink.com 1.10,2013-03-18 10:29:00,
2013-03-18 06:44:00,12.7,0.0,30.41,NW,314,2.0,3.0,58,0.00,,,0.00,weatherlink.com 1.10,2013-03-18 10:44:00,
2013-03-18 06:59:00,12.9,0.0,30.41,NNW,335,0.0,2.0,57,0.00,,,0.00,weatherlink.com 1.10,2013-03-18 10:59:00,
2013-03-18 07:14:00,13.1,0.0,30.42,NNW,343,0.0,2.0,57,0.00,,,0.00,weatherlink.com 1.10,2013-03-18 11:14:00,
2013-03-18 07:29:00,13.0,3.0,30.42,East,79,0.0,1.0,65,0.00,,,0.00,weatherlink.com 1.10,2013-03-18 11:29:00,
2013-03-18 07:44:00,13.2,2.0,30.42,ESE,103,1.0,1.0,61,0.00,,,0.00,weatherlink.com 1.10,2013-03-18 11:44:00,
2013-03-18 07:59:00,13.3,4.0,30.43,SSE,148,0.0,1.0,66,0.00,,,0.00,weatherlink.com 1.10,2013-03-18 11:59:00,
2013-03-18 08:14:00,14.2,4.0,30.44,SE,129,2.0,2.0,64,0.00,,,0.00,weatherlink.com 1.10,2013-03-18 12:14:00,
2013-03-18 08:29:00,15.5,1.0,30.43,NW,312,0.0,3.0,53,0.00,,,0.00,weatherlink.com 1.10,2013-03-18 12:29:00,
2013-03-18 08:44:00,16.3,1.0,30.43,NNW,330,0.0,3.0,50,0.00,,,0.00,weatherlink.com 1.10,2013-03-18 12:44:00,
2013-03-18 09:00:00,17.5,2.0,30.43,NNW,335,1.0,2.0,50,0.00,,,0.00,weatherlink.com 1.10,2013-03-18 13:00:00,
2013-03-18 09:15:00,17.8,1.0,30.43,WNW,302,2.0,5.0,48,0.00,,,0.00,weatherlink.com 1.10,2013-03-18 13:15:00,
2013-03-18 09:30:00,18.5,1.0,30.43,WNW,284,1.0,5.0,46,0.00,,,0.00,weatherlink.com 1.10,2013-03-18 13:30:00,
2013-03-18 09:45:00,19.8,2.0,30.43,West,259,0.0,2.0,46,0.00,,,0.00,weatherlink.com 1.10,2013-03-18 13:45:00,
2013-03-18 10:00:00,20.6,1.0,30.43,NNE,29,2.0,3.0,42,0.00,,,0.00,weatherlink.com 1.10,2013-03-18 14:00:00,
2013-03-18 10:15:00,21.2,1.0,30.43,NNW,336,1.0,4.0,41,0.00,,,0.00,weatherlink.com 1.10,2013-03-18 14:15:00,
2013-03-18 10:30:00,22.5,3.0,30.43,NNE,22,2.0,3.0,43,0.00,,,0.00,weatherlink.com 1.10,2013-03-18 14:30:00,
2013-03-18 10:45:00,23.3,2.0,30.43,NW,311,1.0,4.0,40,0.00,,,0.00,weatherlink.com 1.10,2013-03-18 14:45:00,
2013-03-18 11:00:00,23.9,2.0,30.42,West,270,0.0,3.0,39,0.00,,,0.00,weatherlink.com 1.10,2013-03-18 15:00:00,
2013-03-18 11:15:00,25.6,3.0,30.42,NNW,336,2.0,5.0,37,0.00,,,0.00,weatherlink.com 1.10,2013-03-18 15:15:00,
2013-03-18 11:30:00,26.3,2.0,30.41,NE,36,2.0,3.0,35,0.00,,,0.00,weatherlink.com 1.10,2013-03-18 15:30:00,
2013-03-18 11:45:00,27.3,3.0,30.41,SSE,152,0.0,3.0,35,0.00,,,0.00,weatherlink.com 1.10,2013-03-18 15:45:00,
2013-03-18 12:00:00,28.6,3.0,30.41,WSW,240,0.0,3.0,34,0.00,,,0.00,weatherlink.com 1.10,2013-03-18 16:00:00,
2013-03-18 12:15:00,28.7,4.0,30.40,WSW,250,1.0,3.0,34,0.00,,,0.00,weatherlink.com 1.10,2013-03-18 16:15:00,
2013-03-18 12:31:00,30.1,4.0,30.39,NNE,15,2.0,3.0,33,0.00,,,0.00,weatherlink.com 1.10,2013-03-18 16:31:00,
2013-03-18 12:46:00,30.6,4.0,30.39,West,278,1.0,3.0,32,0.00,,,0.00,weatherlink.com 1.10,2013-03-18 16:46:00,
2013-03-18 13:46:00,32.6,3.0,30.36,SE,135,1.0,3.0,28,0.00,,,0.00,weatherlink.com 1.10,2013-03-18 17:46:00,
2013-03-18 14:01:00,33.2,2.0,30.36,SW,235,1.0,3.0,26,0.00,,,0.00,weatherlink.com 1.10,2013-03-18 18:01:00,
2013-03-18 14:16:00,33.4,4.0,30.35,East,84,0.0,3.0,29,0.00,,,0.00,weatherlink.com 1.10,2013-03-18 18:16:00,
2013-03-18 14:31:00,33.6,1.0,30.34,SSW,200,1.0,5.0,25,0.00,,,0.00,weatherlink.com 1.10,2013-03-18 18:31:00,
2013-03-18 14:46:00,33.2,2.0,30.33,NW,305,1.0,3.0,26,0.00,,,0.00,weatherlink.com 1.10,2013-03-18 18:46:00,
2013-03-18 15:01:00,34.3,6.0,30.33,SSE,167,2.0,2.0,30,0.00,,,0.00,weatherlink.com 1.10,2013-03-18 19:01:00,
2013-03-18 15:16:00,34.0,2.0,30.32,SSE,153,1.0,3.0,25,0.00,,,0.00,weatherlink.com 1.10,2013-03-18 19:16:00,
2013-03-18 15:31:00,33.9,3.0,30.32,SSW,200,0.0,3.0,27,0.00,,,0.00,weatherlink.com 1.10,2013-03-18 19:31:00,
2013-03-18 15:47:00,34.0,3.0,30.32,ESE,114,1.0,2.0,27,0.00,,,0.00,weatherlink.com 1.10,2013-03-18 19:47:00,
2013-03-18 16:02:00,34.0,5.0,30.31,ESE,123,1.0,2.0,30,0.00,,,0.00,weatherlink.com 1.10,2013-03-18 20:02:00,
2013-03-18 16:17:00,34.1,5.0,30.31,SW,228,0.0,2.0,29,0.00,,,0.00,weatherlink.com 1.10,2013-03-18 20:17:00,
2013-03-18 16:32:00,33.8,4.0,30.30,NNW,328,1.0,3.0,28,0.00,,,0.00,weatherlink.com 1.10,2013-03-18 20:32:00,
2013-03-18 16:47:00,33.3,6.0,30.30,SE,127,2.0,2.0,31,0.00,,,0.00,weatherlink.com 1.10,2013-03-18 20:47:00,
2013-03-18 17:02:00,33.4,6.0,30.29,South,169,0.0,1.0,32,0.00,,,0.00,weatherlink.com 1.10,2013-03-18 21:02:00,
2013-03-18 17:17:00,33.3,4.0,30.29,SSE,160,0.0,1.0,29,0.00,,,0.00,weatherlink.com 1.10,2013-03-18 21:17:00,
2013-03-18 17:32:00,32.9,5.0,30.27,SSE,153,1.0,2.0,30,0.00,,,0.00,weatherlink.com 1.10,2013-03-18 21:32:00,
2013-03-18 17:47:00,32.5,6.0,30.27,SE,125,1.0,1.0,32,0.00,,,0.00,weatherlink.com 1.10,2013-03-18 21:47:00,
2013-03-18 18:02:00,32.3,6.0,30.27,SSE,156,1.0,1.0,33,0.00,,,0.00,weatherlink.com 1.10,2013-03-18 22:02:00,
2013-03-18 18:17:00,32.2,5.0,30.27,South,172,0.0,1.0,31,0.00,,,0.00,weatherlink.com 1.10,2013-03-18 22:17:00,
2013-03-18 18:32:00,31.9,6.0,30.27,South,187,0.0,1.0,34,0.00,,,0.00,weatherlink.com 1.10,2013-03-18 22:32:00,
2013-03-18 18:47:00,31.5,6.0,30.27,South,187,0.0,1.0,34,0.00,,,0.00,weatherlink.com 1.10,2013-03-18 22:47:00,
2013-03-18 19:02:00,30.9,4.0,30.28,South,187,0.0,0.0,32,0.00,,,0.00,weatherlink.com 1.10,2013-03-18 23:02:00,
2013-03-18 19:18:00,30.3,5.0,30.27,South,187,0.0,0.0,34,0.00,,,0.00,weatherlink.com 1.10,2013-03-18 23:18:00,
2013-03-18 19:33:00,30.0,5.0,30.26,South,187,0.0,0.0,35,0.00,,,0.00,weatherlink.com 1.10,2013-03-18 23:33:00,
2013-03-18 19:48:00,30.1,11.0,30.26,South,178,0.0,4.0,45,0.00,,,0.00,weatherlink.com 1.10,2013-03-18 23:48:00,
2013-03-18 20:03:00,29.8,15.0,30.25,SE,132,1.0,2.0,54,0.00,,,0.00,weatherlink.com 1.10,2013-03-19 00:03:00,
2013-03-18 20:18:00,29.7,16.0,30.26,South,189,1.0,2.0,58,0.00,,,0.00,weatherlink.com 1.10,2013-03-19 00:18:00,
2013-03-18 20:33:00,29.6,17.0,30.26,SE,131,1.0,2.0,60,0.00,,,0.00,weatherlink.com 1.10,2013-03-19 00:33:00,
2013-03-18 20:48:00,29.4,17.0,30.26,SE,136,3.0,4.0,61,0.00,,,0.00,weatherlink.com 1.10,2013-03-19 00:48:00,
2013-03-18 21:03:00,29.2,18.0,30.25,SE,129,2.0,3.0,63,0.00,,,0.00,weatherlink.com 1.10,2013-03-19 01:03:00,
2013-03-18 21:18:00,29.0,18.0,30.25,SSE,150,0.0,2.0,63,0.00,,,0.00,weatherlink.com 1.10,2013-03-19 01:18:00,
2013-03-18 21:33:00,28.8,18.0,30.25,SE,138,1.0,2.0,64,0.00,,,0.00,weatherlink.com 1.10,2013-03-19 01:33:00,
2013-03-18 21:48:00,28.5,18.0,30.25,SE,126,2.0,4.0,66,0.00,,,0.00,weatherlink.com 1.10,2013-03-19 01:48:00,
2013-03-18 22:03:00,28.4,20.0,30.25,ESE,120,1.0,4.0,70,0.00,,,0.00,weatherlink.com 1.10,2013-03-19 02:03:00,
2013-03-18 22:18:00,28.3,20.0,30.25,SE,131,1.0,2.0,71,0.00,,,0.00,weatherlink.com 1.10,2013-03-19 02:18:00,
2013-03-18 22:33:00,28.3,21.0,30.26,SSE,163,1.0,3.0,73,0.00,,,0.00,weatherlink.com 1.10,2013-03-19 02:33:00,
2013-03-18 22:48:00,28.3,21.0,30.26,SSE,148,1.0,2.0,74,0.00,,,0.00,weatherlink.com 1.10,2013-03-19 02:48:00,
2013-03-18 23:03:00,28.2,21.0,30.26,SE,125,1.0,3.0,74,0.00,,,0.00,weatherlink.com 1.10,2013-03-19 03:03:00,
2013-03-18 23:18:00,28.2,21.0,30.25,SE,146,1.0,3.0,75,0.00,,,0.00,weatherlink.com 1.10,2013-03-19 03:18:00,
2013-03-18 23:33:00,28.3,22.0,30.25,ESE,112,2.0,3.0,76,0.00,,,0.00,weatherlink.com 1.10,2013-03-19 03:33:00,
2013-03-18 23:48:00,28.2,22.0,30.24,ESE,121,1.0,5.0,78,0.00,,,0.00,weatherlink.com 1.10,2013-03-19 03:48:00,